| time (UTC) | temp F | wind direction | speed MPH | gust MPH | rain 1hr in | rain 24hr in | rain mn in | humidity % | barometer mb |
| 20260510071016 | 72 | 286 | 0.0 | 2.0 | 0.00 | 0.01 | 0.00 | 82 | 1012.0 |
| 20260510070016 | 72 | 218 | 2.0 | 3.0 | 0.00 | 0.01 | 0.00 | 82 | 1012.1 |
| 20260510065016 | 72 | 155 | 2.0 | 4.0 | 0.00 | 0.01 | 0.00 | 81 | 1012.1 |
| 20260510064017 | 73 | 143 | 2.0 | 4.0 | 0.00 | 0.01 | 0.00 | 80 | 1012.2 |
| 20260510063037 | 72 | 148 | 2.0 | 3.0 | 0.00 | 0.01 | 0.00 | 80 | 1012.2 |
| 20260510062017 | 72 | 139 | 2.0 | 3.0 | 0.00 | 0.01 | 0.00 | 81 | 1012.2 |
| 20260510061017 | 72 | 61 | 0.0 | 2.0 | 0.00 | 0.01 | 0.00 | 80 | 1012.2 |
| 20260510060017 | 73 | 133 | 0.0 | 3.0 | 0.00 | 0.01 | 0.00 | 79 | 1012.0 |
| 20260510055037 | 73 | 67 | 0.0 | 1.0 | 0.00 | 0.01 | 0.00 | 79 | 1011.9 |
| 20260510054018 | 72 | 154 | 1.0 | 4.0 | 0.00 | 0.01 | 0.00 | 82 | 1011.8 |
| 20260510053018 | 73 | 12 | 1.0 | 2.0 | 0.00 | 0.01 | 0.00 | 81 | 1011.8 |
| 20260510052018 | 74 | 10 | 0.0 | 2.0 | 0.00 | 0.01 | 0.00 | 78 | 1011.7 |
| 20260510051018 | 76 | 192 | 1.0 | 2.0 | 0.00 | 0.01 | 0.00 | 73 | 1011.6 |
| 20260510045016 | 75 | 249 | 0.0 | 1.0 | 0.00 | 0.01 | 0.01 | 75 | 1011.4 |
| 20260510044039 | 76 | 92 | 0.0 | 2.0 | 0.00 | 0.01 | 0.01 | 74 | 1011.4 |
| 20260510043016 | 76 | 137 | 0.0 | 3.0 | 0.00 | 0.01 | 0.01 | 74 | 1011.4 |
| 20260510042016 | 76 | 185 | 3.0 | 3.0 | 0.00 | 0.01 | 0.01 | 73 | 1011.3 |
| 20260510041016 | 77 | 149 | 0.0 | 2.0 | 0.00 | 0.01 | 0.01 | 71 | 1011.2 |
| 20260510040016 | 77 | 162 | 2.0 | 3.0 | 0.00 | 0.01 | 0.01 | 71 | 1011.2 |
| 20260510035016 | 77 | 178 | 0.0 | 2.0 | 0.00 | 0.01 | 0.01 | 71 | 1011.3 |
| 20260510034037 | 77 | 208 | 1.0 | 2.0 | 0.00 | 0.01 | 0.01 | 71 | 1011.2 |
| 20260510033057 | 78 | 178 | 2.0 | 3.0 | 0.00 | 0.01 | 0.01 | 70 | 1011.1 |
| 20260510032017 | 78 | 136 | 1.0 | 3.0 | 0.00 | 0.01 | 0.01 | 70 | 1011.1 |
| 20260510031017 | 78 | 149 | 2.0 | 3.0 | 0.00 | 0.01 | 0.01 | 69 | 1011.0 |
| 20260510030017 | 78 | 99 | 0.0 | 1.0 | 0.00 | 0.01 | 0.01 | 69 | 1010.8 |
| 20260510025018 | 79 | 131 | 0.0 | 2.0 | 0.00 | 0.01 | 0.01 | 68 | 1010.6 |
| 20260510024017 | 80 | 133 | 1.0 | 3.0 | 0.00 | 0.01 | 0.01 | 67 | 1010.5 |
| 20260510023018 | 80 | 166 | 3.0 | 5.0 | 0.00 | 0.01 | 0.01 | 65 | 1010.3 |
| 20260510022038 | 81 | 154 | 2.0 | 4.0 | 0.00 | 0.01 | 0.01 | 64 | 1010.2 |
| 20260510021018 | 81 | 166 | 3.0 | 5.0 | 0.00 | 0.01 | 0.01 | 63 | 1010.1 |
| 20260510020016 | 82 | 144 | 2.0 | 4.0 | 0.00 | 0.01 | 0.01 | 62 | 1009.9 |
| 20260510015016 | 82 | 131 | 2.0 | 5.0 | 0.00 | 0.01 | 0.01 | 61 | 1009.8 |
| 20260510014016 | 83 | 143 | 3.0 | 5.0 | 0.00 | 0.01 | 0.01 | 60 | 1009.5 |
| 20260510013016 | 84 | 142 | 3.0 | 5.0 | 0.00 | 0.01 | 0.01 | 58 | 1009.3 |
| 20260510012017 | 84 | 147 | 2.0 | 5.0 | 0.00 | 0.01 | 0.01 | 57 | 1009.2 |
| 20260510011017 | 85 | 193 | 3.0 | 6.0 | 0.00 | 0.01 | 0.01 | 56 | 1008.9 |
| 20260510010017 | 86 | 201 | 5.0 | 7.0 | 0.00 | 0.01 | 0.01 | 54 | 1008.8 |
| 20260510005017 | 87 | 186 | 6.0 | 10.0 | 0.00 | 0.01 | 0.01 | 54 | 1008.8 |
| 20260510004037 | 87 | 183 | 6.0 | 9.0 | 0.00 | 0.01 | 0.01 | 52 | 1008.7 |
| 20260510003017 | 88 | 180 | 7.0 | 12.0 | 0.00 | 0.01 | 0.01 | 51 | 1008.6 |
| 20260510002017 | 89 | 176 | 5.0 | 10.0 | 0.00 | 0.01 | 0.01 | 49 | 1008.6 |
| 20260510001017 | 89 | 179 | 6.0 | 11.0 | 0.00 | 0.01 | 0.01 | 48 | 1008.7 |
| 20260510000018 | 89 | 186 | 6.0 | 11.0 | 0.00 | 0.01 | 0.01 | 48 | 1008.6 |
| 20260509235018 | 89 | 183 | 5.0 | 9.0 | 0.00 | 0.01 | 0.01 | 47 | 1008.6 |
| 20260509234018 | 90 | 163 | 6.0 | 9.0 | 0.00 | 0.01 | 0.01 | 47 | 1008.5 |
| 20260509233019 | 90 | 187 | 6.0 | 10.0 | 0.00 | 0.01 | 0.01 | 46 | 1008.5 |
| 20260509232039 | 90 | 181 | 4.0 | 8.0 | 0.00 | 0.01 | 0.01 | 44 | 1008.5 |
| 20260509231015 | 90 | 187 | 6.0 | 9.0 | 0.00 | 0.01 | 0.01 | 46 | 1008.5 |
| 20260509230016 | 91 | 172 | 5.0 | 8.0 | 0.00 | 0.01 | 0.01 | 46 | 1008.5 |
| 20260509225016 | 91 | 207 | 5.0 | 8.0 | 0.00 | 0.01 | 0.01 | 41 | 1008.5 |
| 20260509224016 | 90 | 173 | 4.0 | 9.0 | 0.00 | 0.01 | 0.01 | 46 | 1008.5 |
| 20260509223016 | 90 | 209 | 5.0 | 9.0 | 0.00 | 0.01 | 0.01 | 47 | 1008.5 |
| 20260509222016 | 90 | 160 | 4.0 | 9.0 | 0.00 | 0.01 | 0.01 | 46 | 1008.6 |
| 20260509221017 | 89 | 158 | 4.0 | 7.0 | 0.00 | 0.01 | 0.01 | 48 | 1008.6 |
| 20260509220017 | 91 | 223 | 4.0 | 7.0 | 0.00 | 0.01 | 0.01 | 44 | 1008.6 |
| 20260509215018 | 90 | 147 | 4.0 | 7.0 | 0.00 | 0.01 | 0.01 | 47 | 1008.6 |
| 20260509214017 | 91 | 200 | 6.0 | 10.0 | 0.00 | 0.01 | 0.01 | 46 | 1008.7 |
| 20260509213018 | 90 | 230 | 5.0 | 9.0 | 0.00 | 0.01 | 0.01 | 46 | 1008.8 |
| 20260509212017 | 90 | 215 | 4.0 | 7.0 | 0.00 | 0.01 | 0.01 | 46 | 1008.9 |
| 20260509211018 | 90 | 209 | 7.0 | 14.0 | 0.00 | 0.01 | 0.01 | 48 | 1008.9 |
| 20260509210018 | 91 | 230 | 6.0 | 12.0 | 0.00 | 0.01 | 0.01 | 45 | 1009.1 |
| 20260509205019 | 90 | 236 | 6.0 | 10.0 | 0.00 | 0.01 | 0.01 | 46 | 1009.3 |
| 20260509204139 | 90 | 220 | 3.0 | 10.0 | 0.00 | 0.01 | 0.01 | 44 | 1009.5 |
| 20260509203018 | 89 | 193 | 4.0 | 10.0 | 0.00 | 0.01 | 0.01 | 47 | 1009.6 |
| 20260509202016 | 89 | 236 | 4.0 | 9.0 | 0.00 | 0.01 | 0.01 | 49 | 1009.8 |
| 20260509201016 | 89 | 238 | 5.0 | 10.0 | 0.00 | 0.01 | 0.01 | 49 | 1010.0 |
| 20260509200016 | 88 | 228 | 6.0 | 10.0 | 0.00 | 0.01 | 0.01 | 50 | 1010.2 |
| 20260509195016 | 88 | 230 | 5.0 | 12.0 | 0.00 | 0.01 | 0.01 | 50 | 1010.3 |
| 20260509194036 | 89 | 209 | 6.0 | 11.0 | 0.00 | 0.01 | 0.01 | 50 | 1010.4 |
| 20260509193017 | 89 | 241 | 4.0 | 9.0 | 0.00 | 0.01 | 0.01 | 49 | 1010.5 |
| 20260509192017 | 88 | 205 | 3.0 | 7.0 | 0.00 | 0.01 | 0.01 | 53 | 1010.6 |
| 20260509191017 | 87 | 201 | 5.0 | 9.0 | 0.00 | 0.01 | 0.01 | 52 | 1010.7 |
| 20260509190017 | 86 | 190 | 3.0 | 7.0 | 0.00 | 0.01 | 0.01 | 56 | 1010.8 |
| 20260509185037 | 86 | 212 | 6.0 | 11.0 | 0.00 | 0.01 | 0.01 | 57 | 1010.9 |
| 20260509184037 | 86 | 190 | 4.0 | 10.0 | 0.00 | 0.01 | 0.01 | 57 | 1011.0 |
| 20260509183018 | 85 | 222 | 5.0 | 10.0 | 0.00 | 0.01 | 0.01 | 58 | 1011.2 |
| 20260509182016 | 85 | 240 | 6.0 | 9.0 | 0.00 | 0.01 | 0.01 | 62 | 1011.3 |
| 20260509181016 | 85 | 208 | 4.0 | 9.0 | 0.00 | 0.01 | 0.01 | 60 | 1011.4 |
| 20260509180016 | 85 | 252 | 3.0 | 7.0 | 0.00 | 0.01 | 0.01 | 62 | 1011.6 |
| 20260509175017 | 84 | 242 | 6.0 | 11.0 | 0.00 | 0.01 | 0.01 | 62 | 1011.7 |
| 20260509174017 | 83 | 252 | 5.0 | 10.0 | 0.00 | 0.01 | 0.01 | 65 | 1011.8 |
| 20260509173036 | 83 | 180 | 3.0 | 7.0 | 0.00 | 0.01 | 0.01 | 64 | 1012.0 |
| 20260509172016 | 82 | 213 | 3.0 | 6.0 | 0.00 | 0.01 | 0.01 | 67 | 1012.0 |
| 20260509171037 | 82 | 161 | 4.0 | 9.0 | 0.00 | 0.01 | 0.01 | 69 | 1011.9 |
| 20260509170016 | 81 | 168 | 7.0 | 11.0 | 0.00 | 0.01 | 0.01 | 69 | 1012.0 |
| 20260509165016 | 81 | 152 | 6.0 | 9.0 | 0.00 | 0.01 | 0.01 | 72 | 1012.1 |
| 20260509164017 | 80 | 205 | 6.0 | 12.0 | 0.00 | 0.01 | 0.01 | 75 | 1012.3 |
| 20260509163017 | 80 | 174 | 7.0 | 10.0 | 0.01 | 0.01 | 0.01 | 74 | 1012.2 |
| 20260509162017 | 80 | 165 | 7.0 | 12.0 | 0.01 | 0.01 | 0.01 | 75 | 1012.0 |
| 20260509161017 | 80 | 179 | 8.0 | 13.0 | 0.01 | 0.01 | 0.01 | 75 | 1012.0 |
| 20260509160018 | 78 | 180 | 7.0 | 13.0 | 0.01 | 0.01 | 0.01 | 79 | 1012.2 |
| 20260509155018 | 78 | 167 | 5.0 | 9.0 | 0.01 | 0.01 | 0.01 | 80 | 1012.3 |
| 20260509154018 | 77 | 220 | 7.0 | 11.0 | 0.01 | 0.01 | 0.01 | 81 | 1012.3 |
| 20260509153038 | 77 | 184 | 5.0 | 9.0 | 0.00 | 0.00 | 0.00 | 84 | 1012.2 |
| 20260509152018 | 76 | 191 | 6.0 | 12.0 | 0.00 | 0.00 | 0.00 | 83 | 1012.4 |
| 20260509151018 | 75 | 169 | 4.0 | 7.0 | 0.00 | 0.00 | 0.00 | 86 | 1012.6 |
| 20260509150018 | 75 | 169 | 4.0 | 6.0 | 0.00 | 0.00 | 0.00 | 87 | 1012.7 |
| 20260509145019 | 75 | 198 | 4.0 | 5.0 | 0.00 | 0.00 | 0.00 | 88 | 1012.6 |
| 20260509144016 | 75 | 213 | 3.0 | 5.0 | 0.00 | 0.00 | 0.00 | 87 | 1012.7 |
| 20260509143016 | 75 | 223 | 2.0 | 5.0 | 0.00 | 0.03 | 0.00 | 89 | 1012.5 |
| 20260509142016 | 75 | 180 | 3.0 | 6.0 | 0.00 | 0.03 | 0.00 | 88 | 1012.4 |
| 20260509141016 | 75 | 152 | 0.0 | 3.0 | 0.00 | 0.03 | 0.00 | 89 | 1012.3 |
| 20260509140036 | 74 | 30 | 0.0 | 1.0 | 0.00 | 0.03 | 0.00 | 91 | 1012.2 |
| 20260509135017 | 74 | 35 | 2.0 | 4.0 | 0.00 | 0.03 | 0.00 | 91 | 1012.1 |
| 20260509134037 | 74 | 258 | 2.0 | 4.0 | 0.00 | 0.03 | 0.00 | 93 | 1011.9 |
| 20260509133022 | 72 | 345 | 1.0 | 2.0 | 0.00 | 0.03 | 0.00 | 95 | 1012.1 |
| 20260509132021 | 72 | 247 | 1.0 | 2.0 | 0.00 | 0.03 | 0.00 | 96 | 1012.2 |
| 20260509131022 | 72 | 188 | 2.0 | 3.0 | 0.00 | 0.03 | 0.00 | 96 | 1012.4 |
| 20260509130022 | 72 | 359 | 0.0 | 2.0 | 0.00 | 0.03 | 0.00 | 96 | 1012.3 |
| 20260509125018 | 72 | 357 | 1.0 | 3.0 | 0.00 | 0.03 | 0.00 | 96 | 1012.2 |
| 20260509124019 | 72 | 145 | 1.0 | 4.0 | 0.00 | 0.03 | 0.00 | 96 | 1011.9 |
| 20260509123019 | 72 | 172 | 1.0 | 3.0 | 0.00 | 0.03 | 0.00 | 97 | 1012.0 |
| 20260509122019 | 72 | 73 | 2.0 | 4.0 | 0.00 | 0.03 | 0.00 | 97 | 1011.8 |
| 20260509121016 | 71 | 0 | 3.0 | 7.0 | 0.00 | 0.03 | 0.00 | 97 | 1011.9 |
| 20260509120016 | 71 | 16 | 5.0 | 9.0 | 0.00 | 0.03 | 0.00 | 98 | 1012.1 |
| 20260509115036 | 71 | 15 | 5.0 | 9.0 | 0.00 | 0.03 | 0.00 | 98 | 1012.0 |
| 20260509114017 | 70 | 13 | 6.0 | 9.0 | 0.00 | 0.03 | 0.00 | 98 | 1011.8 |
| 20260509113037 | 70 | 22 | 4.0 | 7.0 | 0.00 | 0.03 | 0.00 | 98 | 1011.4 |
| 20260509112017 | 70 | 15 | 1.0 | 3.0 | 0.00 | 0.03 | 0.00 | 98 | 1011.2 |
| 20260509111017 | 70 | 298 | 0.0 | 2.0 | 0.00 | 0.03 | 0.00 | 98 | 1011.0 |
| 20260509110018 | 70 | 204 | 1.0 | 1.0 | 0.00 | 0.03 | 0.00 | 98 | 1011.4 |
| 20260509105018 | 70 | 44 | 1.0 | 1.0 | 0.00 | 0.03 | 0.00 | 98 | 1011.5 |
| 20260509104018 | 70 | 41 | 2.0 | 2.0 | 0.00 | 0.03 | 0.00 | 98 | 1011.3 |
| 20260509103018 | 70 | 42 | 1.0 | 3.0 | 0.00 | 0.03 | 0.00 | 98 | 1011.1 |
| 20260509102018 | 70 | 18 | 5.0 | 9.0 | 0.00 | 0.03 | 0.00 | 98 | 1011.0 |
| 20260509101018 | 70 | 17 | 7.0 | 9.0 | 0.00 | 0.03 | 0.00 | 98 | 1011.1 |
| 20260509100019 | 70 | 15 | 6.0 | 8.0 | 0.00 | 0.03 | 0.00 | 98 | 1010.8 |
| 20260509095036 | 70 | 16 | 6.0 | 9.0 | 0.00 | 0.03 | 0.00 | 98 | 1010.6 |
| 20260509094016 | 70 | 17 | 7.0 | 9.0 | 0.00 | 0.03 | 0.00 | 98 | 1010.5 |
| 20260509093016 | 70 | 15 | 6.0 | 9.0 | 0.00 | 0.03 | 0.00 | 97 | 1010.5 |
| 20260509092036 | 70 | 17 | 7.0 | 8.0 | 0.00 | 0.03 | 0.00 | 97 | 1010.4 |
| 20260509091017 | 70 | 16 | 6.0 | 8.0 | 0.00 | 0.03 | 0.00 | 97 | 1010.4 |
| 20260509090016 | 70 | 10 | 3.0 | 7.0 | 0.00 | 0.03 | 0.00 | 96 | 1010.4 |
| 20260509085037 | 70 | 22 | 3.0 | 8.0 | 0.00 | 0.03 | 0.00 | 96 | 1010.4 |
| 20260509084017 | 70 | 352 | 2.0 | 4.0 | 0.00 | 0.03 | 0.00 | 95 | 1010.4 |
| 20260509083017 | 70 | 6 | 1.0 | 2.0 | 0.00 | 0.03 | 0.00 | 95 | 1010.5 |
| 20260509082017 | 70 | 264 | 1.0 | 4.0 | 0.00 | 0.03 | 0.00 | 95 | 1010.9 |
| 20260509081017 | 70 | 299 | 3.0 | 6.0 | 0.00 | 0.03 | 0.00 | 95 | 1011.1 |
| 20260509080017 | 70 | 296 | 2.0 | 6.0 | 0.00 | 0.03 | 0.00 | 95 | 1010.9 |
| 20260509075038 | 70 | 291 | 2.0 | 4.0 | 0.00 | 0.03 | 0.00 | 95 | 1011.0 |
| 20260509074018 | 70 | 281 | 2.0 | 5.0 | 0.00 | 0.03 | 0.00 | 95 | 1010.9 |
| 20260509073017 | 70 | 288 | 1.0 | 3.0 | 0.00 | 0.03 | 0.00 | 95 | 1010.7 |
| 20260509072038 | 69 | 289 | 1.0 | 3.0 | 0.00 | 0.03 | 0.00 | 95 | 1010.7 |